Year,Month,Day,Hour,Minute,Value (Times are PST for windspeed in km/hr)
2017,01,07,00,00,0.00
2017,01,07,00,01,0.00
2017,01,07,00,02,0.00
2017,01,07,00,03,0.00
2017,01,07,00,04,0.00
2017,01,07,00,05,0.00
2017,01,07,00,06,0.00
2017,01,07,00,07,0.00
2017,01,07,00,08,0.00
2017,01,07,00,09,0.00
2017,01,07,00,10,0.00
2017,01,07,00,11,0.00
2017,01,07,00,12,0.00
2017,01,07,00,13,0.00
2017,01,07,00,14,0.00
2017,01,07,00,15,0.00
2017,01,07,00,16,0.00
2017,01,07,00,17,0.00
2017,01,07,00,18,0.00
2017,01,07,00,19,0.00
2017,01,07,00,20,0.00
2017,01,07,00,21,0.00
2017,01,07,00,22,0.00
2017,01,07,00,23,0.60
2017,01,07,00,24,1.90
2017,01,07,00,25,0.60
2017,01,07,00,26,0.30
2017,01,07,00,27,0.50
2017,01,07,00,28,0.00
2017,01,07,00,29,0.00
2017,01,07,00,30,1.50
2017,01,07,00,31,2.10
2017,01,07,00,32,0.90
2017,01,07,00,33,2.70
2017,01,07,00,34,2.60
2017,01,07,00,35,3.10
2017,01,07,00,36,0.00
2017,01,07,00,37,1.00
2017,01,07,00,38,0.60
2017,01,07,00,39,0.00
2017,01,07,00,40,0.00
2017,01,07,00,41,1.40
2017,01,07,00,42,3.10
2017,01,07,00,43,0.90
2017,01,07,00,44,0.30
2017,01,07,00,45,1.70
2017,01,07,00,46,0.90
2017,01,07,00,47,0.00
2017,01,07,00,48,0.00
2017,01,07,00,49,0.00
2017,01,07,00,50,0.00
2017,01,07,00,51,0.00
2017,01,07,00,52,0.00
2017,01,07,00,53,1.70
2017,01,07,00,54,0.00
2017,01,07,00,55,3.90
2017,01,07,00,56,4.30
2017,01,07,00,57,3.40
2017,01,07,00,58,1.80
2017,01,07,00,59,1.50
2017,01,07,01,00,3.70
2017,01,07,01,01,4.80
2017,01,07,01,02,1.70
2017,01,07,01,03,3.40
2017,01,07,01,04,3.70
2017,01,07,01,05,3.10
2017,01,07,01,06,3.10
2017,01,07,01,07,4.70
2017,01,07,01,08,2.90
2017,01,07,01,09,3.70
2017,01,07,01,10,3.50
2017,01,07,01,11,1.90
2017,01,07,01,12,3.20
2017,01,07,01,13,2.60
2017,01,07,01,14,5.60
2017,01,07,01,15,6.00
2017,01,07,01,16,3.50
2017,01,07,01,17,7.80
2017,01,07,01,18,5.90
2017,01,07,01,19,3.80
2017,01,07,01,20,2.40
2017,01,07,01,21,2.70
2017,01,07,01,22,2.90
2017,01,07,01,23,2.30
2017,01,07,01,24,5.80
2017,01,07,01,25,8.50
2017,01,07,01,26,8.00
2017,01,07,01,27,5.90
2017,01,07,01,28,4.40
2017,01,07,01,29,5.70
2017,01,07,01,30,3.40
2017,01,07,01,31,5.80
2017,01,07,01,32,1.80
2017,01,07,01,33,3.30
2017,01,07,01,34,5.10
2017,01,07,01,35,6.00
2017,01,07,01,36,2.30
2017,01,07,01,37,2.50
2017,01,07,01,38,1.90
2017,01,07,01,39,2.70
2017,01,07,01,40,2.70
2017,01,07,01,41,2.70
2017,01,07,01,42,0.70
2017,01,07,01,43,1.00
2017,01,07,01,44,3.50
2017,01,07,01,45,3.10
2017,01,07,01,46,1.80
2017,01,07,01,47,1.80
2017,01,07,01,48,0.60
2017,01,07,01,49,0.50
2017,01,07,01,50,0.20
2017,01,07,01,51,0.10
2017,01,07,01,52,0.00
2017,01,07,01,53,0.30
2017,01,07,01,54,0.20
2017,01,07,01,55,2.20
2017,01,07,01,56,4.70
2017,01,07,01,57,0.30
2017,01,07,01,58,3.00
2017,01,07,01,59,3.70
2017,01,07,02,00,5.50
2017,01,07,02,01,5.90
2017,01,07,02,02,1.40
2017,01,07,02,03,7.90
2017,01,07,02,04,5.60
2017,01,07,02,05,5.90
2017,01,07,02,06,4.70
2017,01,07,02,07,6.80
2017,01,07,02,08,3.20
2017,01,07,02,09,6.90
2017,01,07,02,10,3.80
2017,01,07,02,11,2.90
2017,01,07,02,12,8.80
2017,01,07,02,13,3.20
2017,01,07,02,14,9.20
2017,01,07,02,15,7.60
2017,01,07,02,16,5.50
2017,01,07,02,17,3.90
2017,01,07,02,18,9.30
2017,01,07,02,19,5.10
2017,01,07,02,20,5.20
2017,01,07,02,21,6.80
2017,01,07,02,22,6.40
2017,01,07,02,23,6.90
2017,01,07,02,24,5.60
2017,01,07,02,25,3.40
2017,01,07,02,26,2.30
2017,01,07,02,27,3.00
2017,01,07,02,28,4.70
2017,01,07,02,29,2.30
2017,01,07,02,30,7.00
2017,01,07,02,31,8.10
2017,01,07,02,32,3.10
2017,01,07,02,33,8.00
2017,01,07,02,34,3.40
2017,01,07,02,35,8.50
2017,01,07,02,36,3.40
2017,01,07,02,37,3.90
2017,01,07,02,38,7.80
2017,01,07,02,39,4.10
2017,01,07,02,40,11.30
2017,01,07,02,41,4.30
2017,01,07,02,42,10.30
2017,01,07,02,43,3.40
2017,01,07,02,44,5.40
2017,01,07,02,45,4.30
2017,01,07,02,46,5.50
2017,01,07,02,47,4.00
2017,01,07,02,48,10.40
2017,01,07,02,49,8.90
2017,01,07,02,50,3.50
2017,01,07,02,51,3.10
2017,01,07,02,52,4.10
2017,01,07,02,53,4.50
2017,01,07,02,54,4.60
2017,01,07,02,55,5.20
2017,01,07,02,56,7.80
2017,01,07,02,57,4.70
2017,01,07,02,58,5.40
2017,01,07,02,59,7.10
2017,01,07,03,00,1.70
2017,01,07,03,01,3.90
2017,01,07,03,02,9.70
2017,01,07,03,03,4.90
2017,01,07,03,04,4.30
2017,01,07,03,05,5.70
2017,01,07,03,06,3.40
2017,01,07,03,07,4.90
2017,01,07,03,08,4.80
2017,01,07,03,09,5.10
2017,01,07,03,10,6.10
2017,01,07,03,11,10.80
2017,01,07,03,12,7.10
2017,01,07,03,13,6.20
2017,01,07,03,14,6.00
2017,01,07,03,15,9.80
2017,01,07,03,16,8.90
2017,01,07,03,17,2.90
2017,01,07,03,18,8.20
2017,01,07,03,19,6.80
2017,01,07,03,20,9.90
2017,01,07,03,21,7.20
2017,01,07,03,22,9.40
2017,01,07,03,23,6.60
2017,01,07,03,24,7.60
2017,01,07,03,25,7.20
2017,01,07,03,26,4.60
2017,01,07,03,27,7.30
2017,01,07,03,28,4.70
2017,01,07,03,29,1.80
2017,01,07,03,30,4.00
2017,01,07,03,31,5.20
2017,01,07,03,32,12.60
2017,01,07,03,33,9.00
2017,01,07,03,34,9.90
2017,01,07,03,35,7.20
2017,01,07,03,36,7.20
2017,01,07,03,37,8.90
2017,01,07,03,38,6.10
2017,01,07,03,39,9.00
2017,01,07,03,40,5.30
2017,01,07,03,41,2.30
2017,01,07,03,42,7.00
2017,01,07,03,43,7.50
2017,01,07,03,44,4.70
2017,01,07,03,45,6.80
2017,01,07,03,46,6.50
2017,01,07,03,47,7.00
2017,01,07,03,48,5.80
2017,01,07,03,49,6.00
2017,01,07,03,50,3.30
2017,01,07,03,51,3.50
2017,01,07,03,52,6.40
2017,01,07,03,53,4.50
2017,01,07,03,54,7.00
2017,01,07,03,55,5.40
2017,01,07,03,56,6.10
2017,01,07,03,57,6.60
2017,01,07,03,58,2.20
2017,01,07,03,59,2.50
2017,01,07,04,00,4.30
2017,01,07,04,01,8.60
2017,01,07,04,02,4.10
2017,01,07,04,03,2.50
2017,01,07,04,04,11.20
2017,01,07,04,05,5.50
2017,01,07,04,06,2.50
2017,01,07,04,07,7.20
2017,01,07,04,08,4.30
2017,01,07,04,09,3.90
2017,01,07,04,10,4.90
2017,01,07,04,11,4.30
2017,01,07,04,12,9.20
2017,01,07,04,13,12.60
2017,01,07,04,14,6.00
2017,01,07,04,15,2.70
2017,01,07,04,16,7.40
2017,01,07,04,17,4.10
2017,01,07,04,18,0.90
2017,01,07,04,19,3.10
2017,01,07,04,20,0.60
2017,01,07,04,21,0.00
2017,01,07,04,22,0.00
2017,01,07,04,23,0.60
2017,01,07,04,24,3.80
2017,01,07,04,25,6.20
2017,01,07,04,26,5.90
2017,01,07,04,27,3.20
2017,01,07,04,28,2.70
2017,01,07,04,29,2.60
2017,01,07,04,30,6.00
2017,01,07,04,31,3.30
2017,01,07,04,32,4.90
2017,01,07,04,33,9.10
2017,01,07,04,34,0.90
2017,01,07,04,35,2.30
2017,01,07,04,36,1.00
2017,01,07,04,37,1.80
2017,01,07,04,38,1.90
2017,01,07,04,39,4.90
2017,01,07,04,40,1.50
2017,01,07,04,41,4.30
2017,01,07,04,42,5.00
2017,01,07,04,43,0.30
2017,01,07,04,44,2.80
2017,01,07,04,45,3.30
2017,01,07,04,46,5.10
2017,01,07,04,47,0.20
2017,01,07,04,48,2.70
2017,01,07,04,49,7.60
2017,01,07,04,50,3.20
2017,01,07,04,51,4.40
2017,01,07,04,52,4.90
2017,01,07,04,53,4.80
2017,01,07,04,54,2.30
2017,01,07,04,55,3.90
2017,01,07,04,56,4.40
2017,01,07,04,57,0.20
2017,01,07,04,58,4.10
2017,01,07,04,59,2.20
2017,01,07,05,00,0.60
2017,01,07,05,01,1.60
2017,01,07,05,02,1.50
2017,01,07,05,03,1.10
2017,01,07,05,04,3.00
2017,01,07,05,05,1.80
2017,01,07,05,06,2.70
2017,01,07,05,07,1.10
2017,01,07,05,08,1.10
2017,01,07,05,09,0.50
2017,01,07,05,10,0.20
2017,01,07,05,11,0.00
2017,01,07,05,12,0.00
2017,01,07,05,13,0.60
2017,01,07,05,14,2.30
2017,01,07,05,15,0.90
2017,01,07,05,16,0.30
2017,01,07,05,17,1.00
2017,01,07,05,18,1.70
2017,01,07,05,19,5.80
2017,01,07,05,20,2.30
2017,01,07,05,21,3.50
2017,01,07,05,22,3.20
2017,01,07,05,23,1.50
2017,01,07,05,24,2.60
2017,01,07,05,25,3.20
2017,01,07,05,26,3.90
2017,01,07,05,27,3.10
2017,01,07,05,28,3.80
2017,01,07,05,29,2.40
2017,01,07,05,30,4.00
2017,01,07,05,31,3.80
2017,01,07,05,32,3.90
2017,01,07,05,33,3.50
2017,01,07,05,34,6.30
2017,01,07,05,35,3.80
2017,01,07,05,36,2.00
2017,01,07,05,37,4.70
2017,01,07,05,38,5.50
2017,01,07,05,39,6.20
2017,01,07,05,40,7.10
2017,01,07,05,41,6.40
2017,01,07,05,42,4.70
2017,01,07,05,43,6.40
2017,01,07,05,44,5.40
2017,01,07,05,45,3.90
2017,01,07,05,46,4.50
2017,01,07,05,47,2.90
2017,01,07,05,48,3.50
2017,01,07,05,49,5.50
2017,01,07,05,50,4.90
2017,01,07,05,51,4.00
2017,01,07,05,52,3.80
2017,01,07,05,53,2.50
2017,01,07,05,54,4.80
2017,01,07,05,55,5.00
2017,01,07,05,56,2.60
2017,01,07,05,57,4.40
2017,01,07,05,58,0.60
2017,01,07,05,59,3.50
2017,01,07,06,00,5.40
2017,01,07,06,01,5.00
2017,01,07,06,02,1.40
2017,01,07,06,03,5.20
2017,01,07,06,04,3.20
2017,01,07,06,05,1.80
2017,01,07,06,06,3.90
2017,01,07,06,07,2.50
2017,01,07,06,08,6.40
2017,01,07,06,09,3.40
2017,01,07,06,10,3.70
2017,01,07,06,11,4.60
2017,01,07,06,12,5.70
2017,01,07,06,13,3.70
2017,01,07,06,14,4.20
2017,01,07,06,15,2.50
2017,01,07,06,16,8.60
2017,01,07,06,17,8.30
2017,01,07,06,18,1.90
2017,01,07,06,19,4.60
2017,01,07,06,20,2.60
2017,01,07,06,21,4.00
2017,01,07,06,22,2.40
2017,01,07,06,23,2.40
2017,01,07,06,24,3.30
2017,01,07,06,25,1.80
2017,01,07,06,26,2.80
2017,01,07,06,27,2.20
2017,01,07,06,28,0.20
2017,01,07,06,29,2.80
2017,01,07,06,30,2.60
2017,01,07,06,31,2.10
2017,01,07,06,32,2.10
2017,01,07,06,33,5.10
2017,01,07,06,34,2.30
2017,01,07,06,35,2.50
2017,01,07,06,36,5.40
2017,01,07,06,37,5.20
2017,01,07,06,38,4.00
2017,01,07,06,39,5.10
2017,01,07,06,40,6.00
2017,01,07,06,41,8.50
2017,01,07,06,42,6.00
2017,01,07,06,43,7.20
2017,01,07,06,44,4.10
2017,01,07,06,45,3.20
2017,01,07,06,46,4.50
2017,01,07,06,47,3.90
2017,01,07,06,48,4.80
2017,01,07,06,49,5.40
2017,01,07,06,50,4.00
2017,01,07,06,51,4.30
2017,01,07,06,52,9.70
2017,01,07,06,53,11.70
2017,01,07,06,54,7.10
2017,01,07,06,55,1.90
2017,01,07,06,56,3.10
2017,01,07,06,57,6.10
2017,01,07,06,58,2.80
2017,01,07,06,59,6.30
2017,01,07,07,00,2.90
2017,01,07,07,01,7.00
2017,01,07,07,02,6.70
2017,01,07,07,03,3.60
2017,01,07,07,04,7.70
2017,01,07,07,05,8.10
2017,01,07,07,06,5.90
2017,01,07,07,07,7.70
2017,01,07,07,08,5.20
2017,01,07,07,09,4.30
2017,01,07,07,10,4.20
2017,01,07,07,11,6.90
2017,01,07,07,12,3.60
2017,01,07,07,13,6.50
2017,01,07,07,14,9.10
2017,01,07,07,15,8.50
2017,01,07,07,16,1.40
2017,01,07,07,17,5.60
2017,01,07,07,18,7.20
2017,01,07,07,19,5.30
2017,01,07,07,20,2.80
2017,01,07,07,21,5.40
2017,01,07,07,22,5.20
2017,01,07,07,23,5.80
2017,01,07,07,24,8.90
2017,01,07,07,25,2.80
2017,01,07,07,26,2.90
2017,01,07,07,27,6.00
2017,01,07,07,28,2.80
2017,01,07,07,29,4.30
2017,01,07,07,30,8.00
2017,01,07,07,31,8.60
2017,01,07,07,32,8.90
2017,01,07,07,33,3.40
2017,01,07,07,34,1.30
2017,01,07,07,35,0.90
2017,01,07,07,36,3.50
2017,01,07,07,37,6.00
2017,01,07,07,38,4.40
2017,01,07,07,39,6.70
2017,01,07,07,40,9.10
2017,01,07,07,41,9.20
2017,01,07,07,42,4.80
2017,01,07,07,43,7.10
2017,01,07,07,44,4.80
2017,01,07,07,45,3.80
2017,01,07,07,46,6.30
2017,01,07,07,47,6.60
2017,01,07,07,48,6.20
2017,01,07,07,49,2.10
2017,01,07,07,50,0.60
2017,01,07,07,51,2.40
2017,01,07,07,52,6.50
2017,01,07,07,53,5.50
2017,01,07,07,54,5.40
2017,01,07,07,55,6.00
2017,01,07,07,56,8.30
2017,01,07,07,57,9.30
2017,01,07,07,58,9.70
2017,01,07,07,59,5.30
2017,01,07,08,00,4.10
2017,01,07,08,01,4.10
2017,01,07,08,02,8.80
2017,01,07,08,03,7.00
2017,01,07,08,04,8.10
2017,01,07,08,05,5.80
2017,01,07,08,06,8.80
2017,01,07,08,07,7.60
2017,01,07,08,08,5.10
2017,01,07,08,09,2.30
2017,01,07,08,10,6.20
2017,01,07,08,11,6.70
2017,01,07,08,12,10.80
2017,01,07,08,13,9.60
2017,01,07,08,14,7.40
2017,01,07,08,15,8.00
2017,01,07,08,16,10.10
2017,01,07,08,17,9.20
2017,01,07,08,18,9.30
2017,01,07,08,19,6.60
2017,01,07,08,20,10.80
2017,01,07,08,21,6.70
2017,01,07,08,22,6.60
2017,01,07,08,23,6.20
2017,01,07,08,24,4.20
2017,01,07,08,25,6.80
2017,01,07,08,26,8.50
2017,01,07,08,27,5.40
2017,01,07,08,28,10.20
2017,01,07,08,29,10.30
2017,01,07,08,30,7.50
2017,01,07,08,31,2.00
2017,01,07,08,32,1.80
2017,01,07,08,33,4.10
2017,01,07,08,34,4.60
2017,01,07,08,35,2.20
2017,01,07,08,36,2.70
2017,01,07,08,37,2.40
2017,01,07,08,38,1.90
2017,01,07,08,39,5.40
2017,01,07,08,40,6.00
2017,01,07,08,41,3.90
2017,01,07,08,42,4.60
2017,01,07,08,43,6.30
2017,01,07,08,44,6.80
2017,01,07,08,45,4.10
2017,01,07,08,46,5.90
2017,01,07,08,47,7.70
2017,01,07,08,48,4.30
2017,01,07,08,49,4.50
2017,01,07,08,50,6.00
2017,01,07,08,51,7.90
2017,01,07,08,52,6.10
2017,01,07,08,53,5.30
2017,01,07,08,54,7.80
2017,01,07,08,55,8.50
2017,01,07,08,56,8.50
2017,01,07,08,57,8.00
2017,01,07,08,58,10.50
2017,01,07,08,59,6.90
2017,01,07,09,00,9.90
2017,01,07,09,01,8.60
2017,01,07,09,02,7.20
2017,01,07,09,03,10.40
2017,01,07,09,04,10.50
2017,01,07,09,05,6.80
2017,01,07,09,06,5.40
2017,01,07,09,07,6.20
2017,01,07,09,08,6.70
2017,01,07,09,09,8.40
2017,01,07,09,10,8.90
2017,01,07,09,11,7.30
2017,01,07,09,12,5.20
2017,01,07,09,13,8.40
2017,01,07,09,14,4.10
2017,01,07,09,15,4.70
2017,01,07,09,16,6.70
2017,01,07,09,17,9.90
2017,01,07,09,18,6.70
2017,01,07,09,19,3.80
2017,01,07,09,20,6.30
2017,01,07,09,21,8.90
2017,01,07,09,22,5.80
2017,01,07,09,23,8.40
2017,01,07,09,24,7.70
2017,01,07,09,25,5.60
2017,01,07,09,26,5.30
2017,01,07,09,27,10.60
2017,01,07,09,28,8.10
2017,01,07,09,29,6.30
2017,01,07,09,30,5.60
2017,01,07,09,31,7.70
2017,01,07,09,32,5.40
2017,01,07,09,33,5.20
2017,01,07,09,34,7.70
2017,01,07,09,35,8.80
2017,01,07,09,36,6.80
2017,01,07,09,37,5.60
2017,01,07,09,38,9.90
2017,01,07,09,39,10.30
2017,01,07,09,40,8.10
2017,01,07,09,41,4.20
2017,01,07,09,42,2.60
2017,01,07,09,43,6.40
2017,01,07,09,44,8.60
2017,01,07,09,45,7.70
2017,01,07,09,46,3.90
2017,01,07,09,47,2.80
2017,01,07,09,48,8.00
2017,01,07,09,49,10.40
2017,01,07,09,50,5.80
2017,01,07,09,51,6.10
2017,01,07,09,52,13.90
2017,01,07,09,53,9.20
2017,01,07,09,54,12.30
2017,01,07,09,55,6.00
2017,01,07,09,56,7.70
2017,01,07,09,57,14.60
2017,01,07,09,58,10.90
2017,01,07,09,59,9.20
2017,01,07,10,00,8.50
2017,01,07,10,01,11.50
2017,01,07,10,02,9.50
2017,01,07,10,03,8.20
2017,01,07,10,04,7.90
2017,01,07,10,05,9.70
2017,01,07,10,06,6.80
2017,01,07,10,07,10.30
2017,01,07,10,08,8.00
2017,01,07,10,09,9.90
2017,01,07,10,10,8.30
2017,01,07,10,11,9.30
2017,01,07,10,12,12.70
2017,01,07,10,13,10.40
2017,01,07,10,14,11.70
2017,01,07,10,15,10.60
2017,01,07,10,16,7.80
2017,01,07,10,17,10.50
2017,01,07,10,18,9.40
2017,01,07,10,19,9.70
2017,01,07,10,20,8.50
2017,01,07,10,21,8.50
2017,01,07,10,22,12.70
2017,01,07,10,23,12.20
2017,01,07,10,24,8.80
2017,01,07,10,25,8.60
2017,01,07,10,26,11.30
2017,01,07,10,27,10.50
2017,01,07,10,28,6.80
2017,01,07,10,29,7.30
2017,01,07,10,30,7.40
2017,01,07,10,31,6.70
2017,01,07,10,32,9.30
2017,01,07,10,33,7.60
2017,01,07,10,34,10.70
2017,01,07,10,35,14.00
2017,01,07,10,36,16.20
2017,01,07,10,37,13.10
2017,01,07,10,38,7.60
2017,01,07,10,39,7.40
2017,01,07,10,40,10.20
2017,01,07,10,41,8.20
2017,01,07,10,42,8.10
2017,01,07,10,43,8.30
2017,01,07,10,44,9.70
2017,01,07,10,45,7.30
2017,01,07,10,46,4.90
2017,01,07,10,47,9.60
2017,01,07,10,48,11.00
2017,01,07,10,49,15.00
2017,01,07,10,50,15.00
2017,01,07,10,51,13.00
2017,01,07,10,52,12.10
2017,01,07,10,53,7.50
2017,01,07,10,54,9.30
2017,01,07,10,55,7.70
2017,01,07,10,56,10.90
2017,01,07,10,57,13.00
2017,01,07,10,58,13.00
2017,01,07,10,59,9.90
2017,01,07,11,00,16.50
2017,01,07,11,01,8.90
2017,01,07,11,02,11.40
2017,01,07,11,03,14.40
2017,01,07,11,04,14.40
2017,01,07,11,05,8.50
2017,01,07,11,06,14.70
2017,01,07,11,07,11.80
2017,01,07,11,08,13.00
2017,01,07,11,09,13.60
2017,01,07,11,10,10.80
2017,01,07,11,11,8.00
2017,01,07,11,12,9.30
2017,01,07,11,13,10.30
2017,01,07,11,14,8.90
2017,01,07,11,15,15.20
2017,01,07,11,16,10.90
2017,01,07,11,17,13.10
2017,01,07,11,18,11.00
2017,01,07,11,19,11.80
2017,01,07,11,20,13.60
2017,01,07,11,21,7.00
2017,01,07,11,22,6.60
2017,01,07,11,23,9.30
2017,01,07,11,24,11.30
2017,01,07,11,25,11.60
2017,01,07,11,26,12.50
2017,01,07,11,27,16.50
2017,01,07,11,28,12.40
2017,01,07,11,29,10.50
2017,01,07,11,30,8.40
2017,01,07,11,31,8.60
2017,01,07,11,32,8.00
2017,01,07,11,33,13.80
2017,01,07,11,34,11.00
2017,01,07,11,35,9.10
2017,01,07,11,36,15.20
2017,01,07,11,37,10.70
2017,01,07,11,38,9.10
2017,01,07,11,39,9.30
2017,01,07,11,40,7.70
2017,01,07,11,41,11.90
2017,01,07,11,42,10.90
2017,01,07,11,43,11.10
2017,01,07,11,44,13.80
2017,01,07,11,45,11.30
2017,01,07,11,46,9.20
2017,01,07,11,47,7.40
2017,01,07,11,48,6.00
2017,01,07,11,49,12.50
2017,01,07,11,50,10.50
2017,01,07,11,51,10.50
2017,01,07,11,52,10.00
2017,01,07,11,53,8.10
2017,01,07,11,54,10.30
2017,01,07,11,55,10.00
2017,01,07,11,56,13.60
2017,01,07,11,57,12.10
2017,01,07,11,58,13.20
2017,01,07,11,59,15.00
2017,01,07,12,00,6.70
2017,01,07,12,01,7.60
2017,01,07,12,02,9.10
2017,01,07,12,03,6.90
2017,01,07,12,04,11.00
2017,01,07,12,05,11.50
2017,01,07,12,06,6.00
2017,01,07,12,07,10.50
2017,01,07,12,08,10.50
2017,01,07,12,09,10.80
2017,01,07,12,10,6.90
2017,01,07,12,11,9.60
2017,01,07,12,12,13.40
2017,01,07,12,13,12.00
2017,01,07,12,14,9.10
2017,01,07,12,15,11.80
2017,01,07,12,16,8.30
2017,01,07,12,17,11.50
2017,01,07,12,18,10.50
2017,01,07,12,19,7.00
2017,01,07,12,20,5.90
2017,01,07,12,21,5.40
2017,01,07,12,22,8.90
2017,01,07,12,23,7.70
2017,01,07,12,24,5.20
2017,01,07,12,25,6.30
2017,01,07,12,26,7.80
2017,01,07,12,27,10.40
2017,01,07,12,28,11.30
2017,01,07,12,29,9.00
2017,01,07,12,30,13.50
2017,01,07,12,31,15.30
2017,01,07,12,32,11.60
2017,01,07,12,33,13.00
2017,01,07,12,34,12.50
2017,01,07,12,35,10.10
2017,01,07,12,36,14.40
2017,01,07,12,37,6.00
2017,01,07,12,38,7.10
2017,01,07,12,39,10.50
2017,01,07,12,40,11.70
2017,01,07,12,41,10.30
2017,01,07,12,42,8.40
2017,01,07,12,43,8.10
2017,01,07,12,44,9.10
2017,01,07,12,45,6.70
2017,01,07,12,46,7.70
2017,01,07,12,47,9.70
2017,01,07,12,48,5.50
2017,01,07,12,49,9.00
2017,01,07,12,50,9.30
2017,01,07,12,51,7.20
2017,01,07,12,52,7.40
2017,01,07,12,53,8.60
2017,01,07,12,54,11.00
2017,01,07,12,55,9.90
2017,01,07,12,56,8.80
2017,01,07,12,57,7.30
2017,01,07,12,58,6.00
2017,01,07,12,59,8.10
2017,01,07,13,00,10.90
2017,01,07,13,01,9.70
2017,01,07,13,02,10.30
2017,01,07,13,03,10.00
2017,01,07,13,04,6.70
2017,01,07,13,05,9.70
2017,01,07,13,06,7.00
2017,01,07,13,07,9.50
2017,01,07,13,08,12.60
2017,01,07,13,09,13.50
2017,01,07,13,10,10.90
2017,01,07,13,11,11.90
2017,01,07,13,12,13.20
2017,01,07,13,13,16.80
2017,01,07,13,14,11.30
2017,01,07,13,15,13.00
2017,01,07,13,16,12.80
2017,01,07,13,17,11.50
2017,01,07,13,18,15.10
2017,01,07,13,19,14.20
2017,01,07,13,20,14.80
2017,01,07,13,21,13.60
2017,01,07,13,22,9.70
2017,01,07,13,23,11.40
2017,01,07,13,24,10.90
2017,01,07,13,25,8.90
2017,01,07,13,26,7.80
2017,01,07,13,27,10.10
2017,01,07,13,28,11.30
2017,01,07,13,29,9.10
2017,01,07,13,30,9.60
2017,01,07,13,31,8.70
2017,01,07,13,32,9.70
2017,01,07,13,33,6.00
2017,01,07,13,34,10.20
2017,01,07,13,35,9.70
2017,01,07,13,36,10.50
2017,01,07,13,37,11.00
2017,01,07,13,38,11.10
2017,01,07,13,39,13.10
2017,01,07,13,40,13.10
2017,01,07,13,41,15.70
2017,01,07,13,42,16.20
2017,01,07,13,43,15.20
2017,01,07,13,44,12.90
2017,01,07,13,45,8.50
2017,01,07,13,46,12.80
2017,01,07,13,47,8.10
2017,01,07,13,48,11.70
2017,01,07,13,49,15.50
2017,01,07,13,50,8.70
2017,01,07,13,51,9.60
2017,01,07,13,52,12.20
2017,01,07,13,53,12.80
2017,01,07,13,54,10.80
2017,01,07,13,55,11.60
2017,01,07,13,56,16.60
2017,01,07,13,57,15.40
2017,01,07,13,58,18.00
2017,01,07,13,59,14.40
2017,01,07,14,00,8.10
2017,01,07,14,01,8.90
2017,01,07,14,02,8.00
2017,01,07,14,03,7.60
2017,01,07,14,04,15.60
2017,01,07,14,05,15.20
2017,01,07,14,06,15.40
2017,01,07,14,07,13.30
2017,01,07,14,08,15.20
2017,01,07,14,09,15.80
2017,01,07,14,10,12.30
2017,01,07,14,11,10.80
2017,01,07,14,12,11.70
2017,01,07,14,13,12.50
2017,01,07,14,14,9.70
2017,01,07,14,15,12.40
2017,01,07,14,16,12.50
2017,01,07,14,17,11.60
2017,01,07,14,18,10.40
2017,01,07,14,19,9.30
2017,01,07,14,20,14.20
2017,01,07,14,21,16.80
2017,01,07,14,22,13.40
2017,01,07,14,23,7.90
2017,01,07,14,24,10.80
2017,01,07,14,25,11.30
2017,01,07,14,26,15.80
2017,01,07,14,27,17.00
2017,01,07,14,28,15.40
2017,01,07,14,29,14.10
2017,01,07,14,30,15.80
2017,01,07,14,31,13.80
2017,01,07,14,32,13.90
2017,01,07,14,33,21.00
2017,01,07,14,34,17.50
2017,01,07,14,35,15.20
2017,01,07,14,36,12.90
2017,01,07,14,37,8.70
2017,01,07,14,38,12.90
2017,01,07,14,39,11.00
2017,01,07,14,40,11.20
2017,01,07,14,41,12.40
2017,01,07,14,42,9.00
2017,01,07,14,43,13.50
2017,01,07,14,44,12.70
2017,01,07,14,45,9.30
2017,01,07,14,46,13.30
2017,01,07,14,47,12.60
2017,01,07,14,48,13.10
2017,01,07,14,49,14.30
2017,01,07,14,50,9.50
2017,01,07,14,51,13.00
2017,01,07,14,52,15.80
2017,01,07,14,53,10.90
2017,01,07,14,54,17.20
2017,01,07,14,55,12.40
2017,01,07,14,56,17.80
2017,01,07,14,57,15.10
2017,01,07,14,58,14.90
2017,01,07,14,59,9.50
2017,01,07,15,00,9.70
2017,01,07,15,01,11.90
2017,01,07,15,02,12.70
2017,01,07,15,03,9.70
2017,01,07,15,04,12.20
2017,01,07,15,05,14.90
2017,01,07,15,06,11.00
2017,01,07,15,07,13.40
2017,01,07,15,08,10.50
2017,01,07,15,09,8.90
2017,01,07,15,10,14.30
2017,01,07,15,11,13.60
2017,01,07,15,12,12.60
2017,01,07,15,13,10.60
2017,01,07,15,14,11.10
2017,01,07,15,15,12.90
2017,01,07,15,16,7.70
2017,01,07,15,17,7.50
2017,01,07,15,18,8.70
2017,01,07,15,19,10.70
2017,01,07,15,20,8.00
2017,01,07,15,21,9.70
2017,01,07,15,22,10.10
2017,01,07,15,23,11.30
2017,01,07,15,24,6.40
2017,01,07,15,25,4.70
2017,01,07,15,26,9.30
2017,01,07,15,27,9.10
2017,01,07,15,28,7.30
2017,01,07,15,29,8.40
2017,01,07,15,30,8.90
2017,01,07,15,31,6.60
2017,01,07,15,32,10.90
2017,01,07,15,33,9.30
2017,01,07,15,34,7.80
2017,01,07,15,35,6.20
2017,01,07,15,36,8.30
2017,01,07,15,37,5.90
2017,01,07,15,38,6.10
2017,01,07,15,39,6.60
2017,01,07,15,40,6.30
2017,01,07,15,41,9.10
2017,01,07,15,42,4.80
2017,01,07,15,43,6.80
2017,01,07,15,44,5.50
2017,01,07,15,45,8.20
2017,01,07,15,46,7.90
2017,01,07,15,47,8.40
2017,01,07,15,48,5.90
2017,01,07,15,49,10.90
2017,01,07,15,50,5.60
2017,01,07,15,51,4.60
2017,01,07,15,52,9.60
2017,01,07,15,53,11.90
2017,01,07,15,54,6.10
2017,01,07,15,55,7.00
2017,01,07,15,56,6.30
2017,01,07,15,57,7.80
2017,01,07,15,58,8.30
2017,01,07,15,59,5.80
2017,01,07,16,00,7.90
2017,01,07,16,01,9.50
2017,01,07,16,02,11.80
2017,01,07,16,03,14.80
2017,01,07,16,04,10.90
2017,01,07,16,05,8.50
2017,01,07,16,06,9.80
2017,01,07,16,07,9.40
2017,01,07,16,08,5.60
2017,01,07,16,09,5.60
2017,01,07,16,10,6.50
2017,01,07,16,11,4.80
2017,01,07,16,12,7.20
2017,01,07,16,13,6.70
2017,01,07,16,14,6.80
2017,01,07,16,15,4.40
2017,01,07,16,16,9.00
2017,01,07,16,17,4.30
2017,01,07,16,18,8.50
2017,01,07,16,19,9.40
2017,01,07,16,20,7.90
2017,01,07,16,21,7.80
2017,01,07,16,22,8.90
2017,01,07,16,23,8.20
2017,01,07,16,24,8.80
2017,01,07,16,25,7.20
2017,01,07,16,26,7.00
2017,01,07,16,27,4.80
2017,01,07,16,28,6.00
2017,01,07,16,29,6.80
2017,01,07,16,30,5.90
2017,01,07,16,31,8.90
2017,01,07,16,32,7.60
2017,01,07,16,33,6.50
2017,01,07,16,34,6.30
2017,01,07,16,35,5.10
2017,01,07,16,36,6.60
2017,01,07,16,37,6.40
2017,01,07,16,38,6.80
2017,01,07,16,39,6.00
2017,01,07,16,40,6.70
2017,01,07,16,41,6.50
2017,01,07,16,42,4.40
2017,01,07,16,43,4.60
2017,01,07,16,44,3.50
2017,01,07,16,45,4.90
2017,01,07,16,46,6.50
2017,01,07,16,47,7.60
2017,01,07,16,48,7.30
2017,01,07,16,49,5.10
2017,01,07,16,50,4.60
2017,01,07,16,51,4.40
2017,01,07,16,52,4.30
2017,01,07,16,53,2.30
2017,01,07,16,54,4.70
2017,01,07,16,55,4.30
2017,01,07,16,56,4.80
2017,01,07,16,57,3.90
2017,01,07,16,58,5.40
2017,01,07,16,59,6.10
2017,01,07,17,00,4.80
2017,01,07,17,01,2.40
2017,01,07,17,02,2.90
2017,01,07,17,03,4.20
2017,01,07,17,04,2.60
2017,01,07,17,05,4.50
2017,01,07,17,06,3.60
2017,01,07,17,07,3.90
2017,01,07,17,08,4.70
2017,01,07,17,09,5.80
2017,01,07,17,10,4.00
2017,01,07,17,11,3.60
2017,01,07,17,12,2.10
2017,01,07,17,13,4.20
2017,01,07,17,14,3.40
2017,01,07,17,15,5.10
2017,01,07,17,16,5.00
2017,01,07,17,17,3.90
2017,01,07,17,18,6.10
2017,01,07,17,19,6.50
2017,01,07,17,20,6.30
2017,01,07,17,21,7.10
2017,01,07,17,22,5.40
2017,01,07,17,23,5.60
2017,01,07,17,24,7.70
2017,01,07,17,25,7.20
2017,01,07,17,26,7.30
2017,01,07,17,27,8.10
2017,01,07,17,28,4.80
2017,01,07,17,29,6.60
2017,01,07,17,30,6.80
2017,01,07,17,31,7.90
2017,01,07,17,32,6.50
2017,01,07,17,33,7.60
2017,01,07,17,34,7.70
2017,01,07,17,35,7.80
2017,01,07,17,36,4.50
2017,01,07,17,37,5.90
2017,01,07,17,38,6.90
2017,01,07,17,39,4.70
2017,01,07,17,40,4.30
2017,01,07,17,41,6.70
2017,01,07,17,42,4.60
2017,01,07,17,43,4.30
2017,01,07,17,44,4.50
2017,01,07,17,45,3.50
2017,01,07,17,46,2.60
2017,01,07,17,47,2.90
2017,01,07,17,48,1.40
2017,01,07,17,49,2.60
2017,01,07,17,50,3.10
2017,01,07,17,51,3.30
2017,01,07,17,52,3.70
2017,01,07,17,53,2.80
2017,01,07,17,54,5.30
2017,01,07,17,55,2.70
2017,01,07,17,56,1.10